Location: São Paulo
(23.5507°S, 46.6334°W)
Time: 21:13:26
(UTC-03:00)

Hubble Space Telescope - Pass Details

Date: 28 July 2021
Orbit: 535 x 539 km, 28.5° (Epoch: 23 September)

Event Time Altitude Azimuth Distance (km) Brightness Sun altitude
Exits shadow 04:55:26 58° 34° (NE) 625 1.2 -24.7°
Drops below altitude 10° 04:59:22 10° 101° (E) 1,794 4.3 -23.8°
Sets 05:01:39 0° 104° (ESE) 2,688 5.4 -23.3°
